Weather History for KNMM - October, 2012

Change the Weather History Date:

Friday, October 12, 2012

  Actual Average (KMEI) Record (KMEI)
Temperature  
Mean Temperature 70 °F 65 °F  
Max Temperature 84 °F 79 °F 94 °F (1963)
Min Temperature 55 °F 52 °F 36 °F (1951)
Degree Days  
Heating Degree Days 0 3  
Month to date heating degree days 22  
Since 1 July heating degree days 29  
Cooling Degree Days 4 3  
Month to date cooling degree days 52  
Year to date cooling degree days 1975  
Growing Degree Days 20 (Base 50)    
Moisture  
Dew Point 60 °F    
Average Humidity 76    
Maximum Humidity 97    
Minimum Humidity 46    
Precipitation  
Precipitation 0.00 in 0.12 in 1.75 in (1986)
Month to date precipitation 1.38  
Year to date precipitation 43.77  
Sea Level Pressure  
Sea Level Pressure 30.26 in    
Wind  
Wind Speed 1 mph (SSE)    
Max Wind Speed 7 mph    
Max Gust Speed -    
Visibility 7 miles    
Events Fog    
T = Trace of Precipitation, MM = Missing Value Source: NWS Daily Summary

Daily Weather History Graph

Daily Weather History Graph

Search for Another Location

Airport or City:

Trip Planner

Search our weather history database for the weather conditions in past years. The results will help you decide how hot, cold, wet, or windy it might be!

Date:

Astronomy

Oct. 12, 2012 Rise Set
Actual Time 6:56 AM CDT 6:24 PM CDT
Civil Twilight 6:31 AM CDT 6:49 PM CDT
Nautical Twilight 6:03 AM CDT 7:17 PM CDT
Astronomical Twilight 5:34 AM CDT 7:45 PM CDT
Moon 3:48 AM CDT (10/12) 4:26 PM CDT (10/12)
Length of Visible Light 12h 17m
Length of Day
11h 28m
Waning Crescent, 10% of the Moon is Illuminated
Oct 12
Waning Crescent
Oct 15
New
Oct 21
First Quarter
Oct 29
Full
Nov 6
Last Quarter

Hourly Weather History & Observations

Time (CDT) Temp. Heat Index Dew Point Humidity Pressure Visibility Wind Dir Wind Speed Gust Speed Precip Events Conditions
12:53 AM 62.6 °F - 60.8 °F 94% 30.22 in 2.5 mi Calm Calm - N/A   Clear
12:56 AM 62.1 °F - 60.1 °F 93% 30.25 in 3.0 mi Calm Calm - N/A   Clear
1:56 AM 60.1 °F - 57.9 °F 93% 30.24 in 5.0 mi Calm Calm - N/A   Clear
2:56 AM 59.0 °F - 57.0 °F 93% 30.23 in 3.0 mi Calm Calm - N/A   Clear
3:56 AM 57.9 °F - 57.0 °F 97% 30.23 in 6.0 mi Calm Calm - N/A   Clear
4:56 AM 57.0 °F - 55.0 °F 93% 30.25 in 8.0 mi Calm Calm - N/A   Clear
5:56 AM 57.0 °F - 55.0 °F 93% 30.27 in 6.0 mi Calm Calm - N/A   Clear
6:07 AM 55.4 °F - 53.6 °F 94% 30.24 in 6.0 mi Calm Calm - N/A   Clear
6:56 AM 55.9 °F - 54.0 °F 93% 30.28 in 6.0 mi Calm Calm - N/A Fog Patches of Fog
7:02 AM 55.4 °F - 53.6 °F 94% 30.25 in 1.0 mi Calm Calm - N/A Fog Patches of Fog
7:56 AM 59.0 °F - 55.9 °F 90% 30.30 in 1.0 mi Calm Calm - N/A Fog Patches of Fog
8:56 AM 66.0 °F - 61.0 °F 84% 30.31 in 1.0 mi Calm Calm - N/A   Haze
9:26 AM 69.8 °F - 62.6 °F 78% 30.29 in 10.0 mi Calm Calm - N/A   Partly Cloudy
9:56 AM 73.0 °F - 62.1 °F 68% 30.32 in 10.0 mi Calm Calm - N/A   Partly Cloudy
10:56 AM 77.0 °F - 62.1 °F 60% 30.32 in 10.0 mi Calm Calm - N/A   Partly Cloudy
11:56 AM 81.0 °F 81.9 °F 62.1 °F 52% 30.31 in 10.0 mi Calm Calm - N/A   Partly Cloudy
12:56 PM 82.0 °F 82.4 °F 60.1 °F 47% 30.29 in 10.0 mi SSE 6.9 mph - N/A   Scattered Clouds
1:56 PM 82.9 °F 83.7 °F 62.1 °F 49% 30.26 in 10.0 mi SE 3.5 mph - N/A   Scattered Clouds
2:10 PM 84.2 °F 85.0 °F 62.6 °F 48% 30.23 in 10.0 mi SE 3.5 mph - N/A   Scattered Clouds
2:12 PM 82.4 °F 83.4 °F 62.6 °F 51% 30.23 in 10.0 mi ESE 3.5 mph - N/A   Scattered Clouds
2:56 PM 82.9 °F 83.7 °F 62.1 °F 49% 30.25 in 10.0 mi South 3.5 mph - N/A   Scattered Clouds
3:56 PM 84.0 °F 84.4 °F 61.0 °F 46% 30.23 in 10.0 mi SSW 3.5 mph - N/A   Mostly Cloudy
4:56 PM 82.9 °F 83.2 °F 60.1 °F 46% 30.23 in 10.0 mi Calm Calm - N/A   Mostly Cloudy
5:56 PM 79.0 °F - 64.9 °F 62% 30.24 in 10.0 mi Calm Calm - N/A   Clear
6:56 PM 72.0 °F - 64.0 °F 76% 30.23 in 10.0 mi Calm Calm - N/A   Clear
7:56 PM 70.0 °F - 64.9 °F 84% 30.24 in 10.0 mi Calm Calm - N/A   Clear
8:56 PM 66.0 °F - 64.0 °F 93% 30.24 in 8.0 mi Calm Calm - N/A   Clear
9:56 PM 66.9 °F - 64.0 °F 90% 30.25 in 5.0 mi Calm Calm - N/A   Clear
10:56 PM 64.9 °F - 62.1 °F 90% 30.24 in 8.0 mi Calm Calm - N/A   Clear
11:56 PM 64.0 °F - 62.1 °F 93% 30.23 in 7.0 mi Calm Calm - N/A   Clear